FALCON 9 R/B

Last updated on Jan. 17, 2020, 12:02 a.m. UTC

1 44869U 19091B   20016.33165227  .00002654  00000-0  34071-3 0  9994
2 44869  26.9040 257.8043 6018970 215.6684  82.9674  4.03396186  1250
UTC
Height (km)
Latitude
Longitude
Inclination
Orbital Period
UTC large
Height (km)
Speed (km/s)
/
Latitude / Longitude
Inclination (degrees)
Orbital Period (minutes)
Azimuth
Elevation
Range (km)
Doppler Factor
iOS Compass Heading
iOS Angle

Next 30 passes for location: Hong Kong

Rise time Rise Azimuth (degrees) Set time Set Azimuth (degrees) Duration Max altitude (degrees)

No matching passes for this satellites